This is the latest recevied weather packets stored in our database for station/object KQ4NAL. If no packets are shown the sender has not sent any weather packets the latest 10 day(s).
| Time | Temp. | Humidity | Pressure | Rain* | Wind** | Luminosity | Snow |
|---|---|---|---|---|---|---|---|
| 1777903721 | 16.11° C | 70% | 1010.7 hPa | 0 mm | - | 285 W/m² | - |
| 1777903416 | 15.56° C | 70% | 1010.8 hPa | 0 mm | - | 626 W/m² | - |
| 1777903113 | 15° C | 71% | 1011 hPa | 0 mm | - | 479 W/m² | - |
| 1777902810 | 15° C | 72% | 1011 hPa | 0 mm | - | 293 W/m² | - |
| 1777902507 | 15° C | 72% | 1010.9 hPa | 0 mm | - | 298 W/m² | - |
| 1777902204 | 14.44° C | 72% | 1010.8 hPa | 0 mm | - | 327 W/m² | - |
| 1777901902 | 14.44° C | 73% | 1011.1 hPa | 0 mm | - | 298 W/m² | - |
| 1777901600 | 14.44° C | 72% | 1011.2 hPa | 0 mm | - | 306 W/m² | - |
| 1777901297 | 13.89° C | 73% | 1011.1 hPa | 0 mm | - | 349 W/m² | - |
| 1777900994 | 13.89° C | 74% | 1011.5 hPa | 0 mm | - | 279 W/m² | - |
| 1777900692 | 13.33° C | 75% | 1011.6 hPa | 0 mm | - | 173 W/m² | - |
| 1777900388 | 13.33° C | 75% | 1011.6 hPa | 0 mm | - | 145 W/m² | - |
| 1777900086 | 13.33° C | 74% | 1011.7 hPa | 0 mm | - | 152 W/m² | - |
| 1777899781 | 13.33° C | 74% | 1011.6 hPa | 0 mm | - | 154 W/m² | - |
| 1777899478 | 12.78° C | 75% | 1011.6 hPa | 0 mm | - | 162 W/m² | - |
| 1777899176 | 12.78° C | 76% | 1011.6 hPa | 0 mm | - | 132 W/m² | - |
| 1777898874 | 12.78° C | 76% | 1011.7 hPa | 0 mm | - | 92 W/m² | - |
| 1777898571 | 12.78° C | 76% | 1011.7 hPa | 0 mm | - | 79 W/m² | - |
| 1777898268 | 12.78° C | 76% | 1011.9 hPa | 0 mm | - | 71 W/m² | - |
| 1777897965 | 12.78° C | 75% | 1011.9 hPa | 0 mm | - | 77 W/m² | - |
| 1777897661 | 12.78° C | 75% | 1011.9 hPa | 0 mm | - | 95 W/m² | - |
| 1777897358 | 12.78° C | 75% | 1012 hPa | 0 mm | - | 90 W/m² | - |
| 1777897053 | 12.78° C | 74% | 1011.7 hPa | 0 mm | - | 89 W/m² | - |
| 1777896751 | 12.78° C | 73% | 1012.1 hPa | 0 mm | - | 82 W/m² | - |
| 1777896448 | 12.78° C | 73% | 1012.3 hPa | 0 mm | - | 83 W/m² | - |
* Rain latest hour (hover to see other rain measurements)
** Current wind speed in m/s (hover to see current wind gust speed)